Theta_e
349 350 353 355 355 354 354 354 354 354 354 353 353 353 352 353 352 352 352 352 352 352 353 353 353 352 353 352 351 352 351 350 350 350 350 349 349 348 348 348 347 346 347 348 348 348 347 347 346 346 344 345 346 346 345 343 342 341 342 342 342 342 341 340 338 338 338 336 340 341 342 343 344 345 343 344 344 345 344 344 344 342 342 342 345
348 351 353 354 354 354 354 353 354 353 353 353 353 352 352 352 352 351 352 352 352 352 352 352 352 352 352 352 352 351 351 351 350 350 349 349 350 349 349 347 347 348 349 349 349 349 348 347 346 346 346 347 347 345 345 344 343 342 342 342 342 342 341 340 340 337 337 336 338 340 341 343 343 345 345 344 344 344 344 344 344 341 342 344 344
350 352 353 353 354 354 353 353 354 353 353 353 352 352 351 351 351 351 351 351 351 352 352 352 352 352 352 352 352 352 351 351 350 350 349 349 350 351 350 350 350 350 351 350 349 349 348 348 348 348 348 348 346 345 345 345 344 343 342 341 342 341 339 339 339 339 339 338 339 340 341 341 344 343 344 343 344 343 342 343 343 343 340 344 343
350 352 352 353 354 354 353 352 353 353 353 352 352 352 352 351 350 350 351 351 352 352 352 351 352 352 352 352 352 352 352 351 351 351 350 351 351 349 348 349 349 349 349 348 347 347 347 347 348 348 347 347 346 347 346 345 344 343 343 344 343 341 341 338 338 337 338 339 339 337 337 332 339 343 343 343 344 343 342 342 342 343 342 343 343
350 352 351 352 352 353 353 353 353 353 352 352 351 352 352 351 351 350 351 351 351 352 351 351 351 351 352 352 352 352 353 353 352 352 353 352 351 349 348 349 348 348 349 348 347 347 347 347 349 348 348 349 348 348 347 345 344 343 343 345 345 345 341 339 338 338 338 339 339 336 331 331 332 340 343 343 344 343 342 343 342 342 342 342 343
350 351 352 351 351 352 353 352 352 352 351 351 351 352 351 351 350 350 351 350 351 351 352 351 352 352 352 352 352 351 352 351 352 352 351 352 351 350 349 349 348 347 346 347 346 346 348 349 349 348 348 348 348 347 346 346 346 345 344 344 344 345 342 339 338 338 339 338 337 332 330 332 331 333 343 342 342 342 342 342 342 342 342 342 342
351 351 350 350 350 351 352 352 351 351 351 351 351 351 351 350 351 351 351 352 352 352 351 352 351 351 351 351 352 351 352 352 351 352 351 351 351 350 349 348 348 348 348 347 347 347 348 348 348 349 348 348 347 347 346 345 345 344 344 343 343 345 342 340 338 338 338 335 331 330 330 333 335 334 338 341 342 341 341 341 341 341 341 341 341
351 351 349 349 349 351 353 352 350 351 351 351 351 350 351 351 351 351 353 352 351 351 351 351 351 351 351 351 352 352 352 351 351 351 350 351 350 349 348 349 348 346 346 347 347 347 348 348 348 348 348 347 347 346 345 346 345 344 344 344 344 345 342 339 338 338 338 332 330 329 329 330 332 334 334 337 339 339 339 342 342 342 342 342 341
350 350 350 349 349 352 352 351 351 350 351 351 351 350 350 351 351 351 350 351 351 351 351 351 350 350 351 351 351 351 351 351 352 353 351 350 349 348 348 347 346 346 345 345 346 346 347 347 348 347 348 347 346 346 345 345 345 345 344 344 344 345 343 340 339 339 334 333 330 330 330 329 329 331 337 337 337 338 341 342 341 342 341 342 341
349 350 349 349 349 353 351 351 351 351 352 352 351 351 350 350 350 351 352 351 351 351 351 351 350 350 350 350 351 350 350 350 351 351 352 352 351 349 348 347 347 346 346 346 346 346 347 347 347 347 347 346 346 345 346 345 345 345 345 345 346 346 343 340 339 338 333 333 333 334 337 337 331 332 335 336 336 335 337 342 341 341 340 341 341
349 349 349 349 350 352 351 352 352 352 353 352 352 351 350 350 351 352 351 351 351 351 351 350 350 350 350 350 350 350 350 350 350 350 351 350 350 349 348 347 347 346 346 346 346 346 347 347 346 346 347 346 345 345 346 345 345 345 345 346 346 344 341 340 337 333 333 332 331 333 336 337 332 334 336 336 335 336 338 339 340 339 339 339 339
348 349 349 350 352 351 352 352 352 352 353 353 352 352 352 351 352 352 351 351 350 350 350 350 350 350 349 349 349 349 349 349 349 349 349 349 349 348 348 347 346 346 346 345 345 346 346 346 346 347 346 346 345 346 345 345 346 345 344 344 343 341 340 338 333 332 331 332 334 332 330 331 331 333 336 336 336 336 337 337 337 338 338 338 337
347 349 350 350 349 351 352 352 352 352 353 353 353 352 352 352 352 351 351 350 350 350 350 350 350 350 349 349 348 348 348 348 348 348 348 348 348 348 347 346 347 347 346 347 347 347 347 347 347 346 346 346 345 345 344 345 346 344 342 342 342 341 340 338 332 332 331 330 330 329 329 331 333 335 336 336 336 335 335 335 335 335 336 335 335
347 348 349 349 349 352 352 351 352 353 353 353 353 352 352 351 350 350 350 350 350 350 350 350 350 349 349 348 348 348 348 347 346 347 347 347 348 347 347 347 348 347 346 346 346 346 347 347 346 346 346 345 345 345 344 345 346 345 342 342 341 340 340 338 336 333 332 331 334 330 331 334 336 337 336 335 335 335 335 334 333 334 333 333 333
347 348 348 348 349 350 352 352 352 353 352 352 352 352 351 350 350 350 350 350 350 350 349 349 349 348 348 348 347 347 347 347 347 345 347 347 347 347 347 347 347 347 347 347 346 346 346 346 346 345 344 344 344 344 344 344 346 345 342 341 341 340 338 334 333 332 332 334 334 332 332 334 336 339 336 335 335 335 334 334 333 333 333 332 332
347 347 348 347 348 349 349 352 352 352 352 352 351 351 350 350 350 349 349 349 349 349 349 349 349 349 348 348 348 348 347 347 347 346 346 346 347 347 347 346 346 347 347 347 346 346 346 346 345 345 344 344 344 344 344 344 344 345 343 342 340 339 338 335 332 332 333 333 335 336 332 335 337 336 335 335 335 335 334 334 333 332 331 331 332
348 348 347 346 346 347 348 349 351 353 352 352 350 350 349 349 349 349 349 349 350 350 349 349 348 348 347 347 347 347 347 347 347 347 347 347 347 347 347 347 347 347 347 346 346 346 345 345 344 344 343 344 344 344 344 344 344 345 343 341 340 339 339 337 332 332 333 335 335 331 331 332 335 337 336 336 335 334 335 333 333 332 332 333 333
348 348 346 345 346 347 347 348 349 349 349 350 350 350 350 349 349 349 349 349 349 349 348 348 348 348 348 347 346 346 346 346 346 346 346 346 346 346 346 346 346 346 347 346 346 345 344 344 344 344 343 344 343 342 342 343 343 343 344 342 340 340 339 337 333 334 335 337 332 335 333 337 338 335 335 335 334 334 334 334 334 333 332 331 331
347 347 346 345 346 346 346 346 348 347 347 347 346 348 349 349 349 349 349 349 349 348 348 347 347 347 347 347 346 346 346 346 346 346 346 346 346 345 345 345 346 346 346 345 344 344 344 344 343 343 342 340 340 341 341 341 343 343 344 341 341 340 340 336 333 334 337 334 334 332 334 338 338 335 336 335 334 334 334 334 333 333 332 331 331
346 346 346 346 345 345 346 347 347 346 346 346 345 344 346 349 349 349 349 349 348 348 347 347 347 346 346 345 346 346 346 346 347 345 346 346 346 345 345 345 345 344 344 344 343 343 343 342 341 340 340 339 339 340 340 341 342 343 344 342 341 341 335 333 334 333 333 334 335 333 336 336 335 335 335 335 335 334 333 333 334 333 332 331 331
344 345 345 345 345 346 346 346 346 346 346 346 345 344 346 348 348 349 348 348 347 348 348 347 345 345 345 345 345 343 342 342 343 343 345 345 345 345 345 345 344 344 344 342 342 341 341 340 339 340 339 337 337 338 341 341 343 343 343 343 342 334 332 333 333 334 334 337 336 333 336 335 335 336 335 335 334 334 334 333 334 332 332 332 332
341 342 344 345 345 345 345 346 345 346 346 346 345 343 343 347 343 343 345 345 347 346 345 344 345 343 346 343 342 343 340 340 342 346 343 345 343 345 345 344 344 343 342 341 341 340 340 340 340 339 336 336 334 327 330 340 343 342 343 343 333 332 332 332 332 334 335 335 335 337 338 338 336 336 335 334 334 333 333 333 334 333 333 332 332
339 341 342 344 344 344 345 345 345 345 345 345 344 343 342 343 343 343 344 346 344 346 342 343 340 341 341 341 341 339 339 340 341 343 343 344 344 345 344 342 342 341 340 340 339 340 340 340 339 336 335 333 327 326 326 325 330 341 342 335 332 332 332 332 332 334 334 335 333 338 339 339 338 337 336 335 334 334 334 334 334 333 333 333 332
338 340 340 343 344 343 344 344 344 345 344 344 344 343 343 343 343 343 341 342 342 342 340 340 339 339 338 338 338 340 338 338 344 344 345 341 343 344 343 342 342 342 343 340 341 340 341 339 337 335 332 330 327 328 327 327 326 326 330 332 332 331 331 332 333 332 333 337 333 340 339 338 338 336 335 334 333 334 334 333 333 333 333 332 332
339 341 342 341 342 342 343 343 344 344 344 343 342 342 342 342 342 341 341 341 340 339 338 337 337 337 337 337 337 338 336 337 338 338 337 337 337 336 336 336 336 336 337 332 332 332 331 329 329 330 328 329 328 328 327 327 328 327 329 331 332 331 332 333 332 332 333 336 336 340 339 339 338 338 337 335 335 334 334 333 333 333 333 331 332
340 339 340 340 341 342 342 342 343 343 343 342 341 342 342 341 339 339 339 339 338 337 337 336 336 336 336 337 337 335 335 335 335 335 334 334 334 334 334 334 334 333 335 332 330 330 329 329 329 329 329 329 329 328 330 329 327 328 329 331 331 331 331 332 332 333 334 335 338 340 341 339 340 338 338 337 336 335 335 334 333 333 332 331 332
338 338 340 340 341 341 341 342 342 342 342 342 342 341 340 340 339 338 338 337 338 336 335 336 336 336 336 337 334 333 333 333 333 333 333 333 333 333 333 333 332 332 334 331 329 328 328 329 328 328 327 329 329 329 328 326 328 329 330 331 331 331 332 332 333 334 334 335 339 341 341 339 342 338 339 339 337 336 335 334 333 332 332 332 332
338 338 339 339 340 339 340 341 341 341 340 341 340 339 339 338 340 341 338 340 338 336 336 336 336 335 335 335 335 333 333 332 331 332 332 333 332 332 331 331 332 332 333 330 329 328 328 328 328 326 329 329 330 329 328 327 327 330 330 331 331 331 331 332 333 334 334 336 339 340 341 341 341 341 339 339 338 336 335 334 333 332 332 332 332
336 337 338 338 339 339 340 340 340 340 340 340 338 338 338 339 339 338 339 341 336 336 336 337 336 336 334 335 335 331 330 330 330 330 331 332 331 331 330 331 331 331 330 329 330 329 328 328 327 327 325 327 328 329 328 327 326 328 330 330 331 330 331 332 333 334 334 336 337 341 340 341 340 341 339 338 337 336 335 334 333 333 333 333 332
336 337 338 338 338 339 339 338 339 339 339 339 337 337 337 338 337 338 340 338 335 335 336 336 336 335 332 333 333 331 330 330 331 331 331 331 332 331 331 330 331 330 330 329 329 328 327 325 325 326 326 327 328 330 327 327 328 328 329 330 330 331 332 333 333 334 334 334 335 340 341 340 339 340 340 338 337 336 335 335 334 334 333 332 332
337 336 337 337 338 338 338 338 338 339 339 337 337 336 337 337 337 336 337 335 335 336 335 334 334 333 332 331 331 332 330 331 331 331 332 332 331 332 332 331 331 330 330 330 330 329 328 328 327 326 326 326 327 327 327 326 326 328 329 330 329 331 331 333 333 333 333 333 333 336 340 340 340 340 340 339 338 336 335 334 335 334 334 334 334
335 335 336 338 337 337 337 338 338 338 337 336 337 336 336 337 336 336 335 335 336 335 334 333 332 330 332 331 331 331 332 331 331 330 331 330 330 331 331 331 331 330 330 330 331 329 329 329 330 329 329 329 327 327 325 326 325 327 328 329 329 330 331 332 332 332 332 332 333 334 335 338 341 341 340 339 338 338 336 335 335 335 335 335 335
335 336 336 337 336 337 336 337 338 337 336 335 335 336 336 336 335 334 334 335 336 335 333 332 329 329 330 330 331 332 331 330 330 331 331 329 330 330 330 330 330 330 330 330 330 330 330 328 328 329 328 327 326 326 326 326 326 326 328 329 329 330 330 331 330 332 332 332 333 334 334 337 338 338 339 340 338 339 338 336 336 335 336 336 336
334 335 336 336 337 337 337 337 337 336 336 336 336 335 335 335 334 333 334 334 334 334 333 331 330 329 329 329 330 331 330 330 330 329 327 327 328 329 329 328 328 329 330 329 328 329 329 329 329 330 329 325 324 323 323 326 326 326 327 328 328 328 329 330 331 332 333 333 333 334 334 334 334 336 339 340 339 339 338 339 335 336 335 336 337
334 334 335 335 336 336 336 336 336 335 335 335 335 335 335 334 333 334 333 332 333 333 333 331 329 328 328 328 329 330 329 329 330 329 325 325 326 326 326 326 328 330 329 328 329 329 329 329 328 327 326 326 326 326 324 324 325 326 326 328 329 330 331 331 331 332 332 332 333 333 333 334 334 333 332 333 338 339 338 338 338 334 333 336 336
333 334 335 335 335 335 336 335 335 334 334 334 334 334 334 332 333 336 334 334 332 332 332 332 328 328 328 327 328 330 329 329 328 327 325 325 325 325 325 328 330 330 329 327 328 327 327 327 327 327 326 325 325 324 325 324 325 325 326 328 330 331 331 332 331 331 331 332 332 332 331 330 330 335 335 332 334 338 336 337 337 338 338 337 337
334 334 334 334 335 334 335 335 334 334 333 333 333 333 331 331 334 336 334 333 331 331 331 330 329 328 327 327 328 330 327 328 328 327 326 325 325 325 326 329 330 330 328 326 326 326 327 326 326 328 328 325 325 325 324 324 325 325 327 329 330 331 331 331 330 330 330 330 331 330 329 332 334 334 330 332 332 335 338 338 339 338 338 339 337
335 335 335 334 333 333 334 335 334 333 332 332 332 332 331 333 335 335 335 332 330 330 330 330 329 328 328 327 329 330 328 327 328 327 326 326 326 327 327 330 330 328 327 326 326 326 326 327 326 328 328 325 324 324 324 324 325 326 327 328 329 330 330 331 331 331 330 330 330 331 330 331 331 330 330 331 332 332 333 335 336 337 337 335 336
334 335 335 335 332 332 332 334 333 331 330 331 331 331 332 333 334 334 332 331 330 329 330 330 329 328 328 328 329 329 330 327 329 328 326 329 327 328 328 329 328 327 327 326 326 326 325 325 326 325 325 324 324 324 324 325 326 326 326 327 328 328 330 331 331 330 331 331 333 333 332 331 331 330 330 330 330 331 330 330 331 333 335 336 336
333 335 335 334 331 330 331 332 332 331 330 330 331 331 332 332 332 333 332 331 330 330 330 329 328 328 329 329 329 328 329 329 330 329 328 327 327 329 329 329 326 327 326 325 325 324 325 324 325 326 324 324 325 325 326 326 326 325 325 326 328 328 328 329 329 328 328 329 329 331 330 331 331 331 331 330 329 329 329 329 330 329 331 333 333
332 333 333 333 331 329 329 329 330 330 330 329 330 331 330 331 332 332 331 329 329 328 328 328 327 328 329 329 328 328 328 330 329 328 327 330 328 326 327 327 326 327 326 326 325 325 327 327 326 325 323 321 324 324 324 325 323 321 323 323 324 326 328 328 328 328 327 327 330 329 329 329 329 328 330 330 329 328 328 328 328 328 328 329 329
329 331 332 332 331 330 329 329 329 329 329 330 331 332 332 332 331 331 329 329 329 327 325 326 326 328 327 327 327 327 328 329 329 328 329 329 326 326 326 326 326 325 326 325 324 326 327 326 326 323 322 321 322 325 322 321 318 319 318 318 321 323 326 326 327 328 328 328 329 328 327 327 327 328 330 329 329 327 326 325 327 327 327 327 327
329 330 332 332 331 329 329 329 329 329 328 330 331 331 332 331 330 326 329 324 325 327 326 327 328 326 325 325 326 326 328 327 328 329 328 327 326 326 325 325 325 327 326 325 325 324 325 326 324 323 320 322 324 324 323 320 317 317 318 318 314 316 320 323 326 326 327 328 329 329 329 327 328 329 329 327 326 328 327 327 327 328 328 329 328
328 329 330 330 331 329 329 328 329 329 328 330 330 330 331 327 326 327 325 324 323 326 325 325 324 324 323 323 324 326 327 327 328 329 328 326 326 326 325 325 325 327 325 324 324 324 324 324 323 322 322 320 320 322 324 322 319 319 314 312 313 315 312 315 318 322 327 327 327 327 328 327 327 328 328 326 325 328 328 328 328 328 328 328 327
327 328 328 329 330 329 328 328 328 328 328 329 328 328 326 323 323 324 325 325 325 324 324 321 320 324 322 322 323 323 326 327 326 327 327 324 324 324 324 324 325 324 324 324 323 324 325 324 323 322 321 321 318 318 323 323 322 321 316 312 311 310 311 315 318 319 324 325 327 328 327 326 325 326 327 327 328 328 327 326 325 325 324 324 322
326 327 329 330 330 329 327 327 327 327 327 326 327 327 325 323 323 323 322 321 320 321 321 320 319 320 321 318 320 322 324 325 324 325 326 325 323 323 323 324 324 324 324 325 324 323 323 323 323 323 319 317 321 318 321 322 322 323 318 317 314 313 313 318 317 311 322 325 325 325 325 325 327 326 327 327 326 326 326 324 323 320 318 318 318
325 327 328 329 330 328 327 327 327 326 326 325 325 325 323 323 324 324 324 323 321 317 317 319 321 316 318 318 319 319 320 322 321 322 323 324 323 322 323 324 324 324 326 323 323 323 324 325 324 322 321 320 320 319 319 319 320 320 319 319 321 319 322 317 313 316 313 319 323 323 323 326 327 326 326 325 325 323 321 319 317 316 314 314 315
323 325 327 328 328 327 325 326 326 326 325 324 323 324 323 322 321 322 322 321 322 318 318 317 316 318 317 317 318 317 317 318 318 319 321 323 322 321 321 322 323 323 326 323 324 323 323 325 325 323 321 323 322 322 319 319 321 319 318 319 319 319 316 315 320 318 316 314 316 322 324 325 326 325 324 322 321 320 317 316 314 314 313 313 313
323 324 325 327 327 326 325 325 325 325 323 323 322 322 323 321 321 321 320 320 320 319 318 319 317 317 316 315 317 316 317 316 316 318 320 322 325 321 320 320 320 323 325 321 322 323 323 323 323 322 322 321 321 321 322 320 318 318 317 316 317 317 317 318 317 319 318 315 315 317 318 323 323 322 319 317 316 315 314 314 314 312 313 312 313
323 324 325 326 326 326 325 323 324 324 322 321 320 319 321 321 320 320 319 317 319 318 317 315 315 315 316 314 315 316 315 315 315 315 317 320 321 321 318 319 319 322 323 320 320 321 321 322 322 322 320 320 319 322 322 320 318 318 319 318 316 316 317 317 317 319 318 319 315 315 317 317 315 317 318 314 312 312 312 312 311 311 311 311 312
323 325 325 325 326 326 325 322 322 322 322 320 318 317 319 319 320 319 318 318 318 317 315 314 313 314 315 314 315 314 314 314 314 315 315 317 319 321 318 319 321 324 321 320 320 321 319 320 319 320 320 320 319 320 318 318 318 319 317 319 318 318 316 314 316 317 318 317 316 316 318 318 316 314 312 312 311 310 310 310 310 310 311 311 311
Wind_Speed
8 12 10 14 14 15 16 16 17 18 19 19 19 19 19 18 17 17 16 17 19 20 20 20 20 20 20 20 20 20 20 20 19 19 19 18 18 18 17 17 17 17 17 18 19 19 19 19 20 20 20 19 19 19 18 17 18 18 18 17 17 17 16 15 15 14 14 13 13 13 15 15 14 13 15 15 16 17 16 16 12 9 8 12 17
13 11 10 11 15 15 17 17 18 19 19 20 19 20 20 20 18 17 17 16 17 18 19 20 20 20 21 20 21 20 19 19 19 19 19 18 18 18 18 17 17 17 19 20 20 20 19 19 19 19 19 19 20 19 18 18 18 17 16 16 16 16 14 14 15 14 13 14 14 12 14 15 15 15 15 15 16 16 15 16 15 8 7 14 17
11 10 10 12 17 17 16 17 17 19 19 20 20 20 19 20 19 19 18 17 17 18 18 19 19 19 19 20 20 19 19 19 19 19 19 18 18 18 17 17 17 17 19 19 20 20 20 19 19 18 18 19 19 18 17 16 17 16 16 17 16 15 14 13 13 14 14 13 12 11 11 12 17 15 14 15 15 15 15 16 15 13 9 16 15
13 10 9 14 18 15 16 17 18 18 18 19 19 19 19 19 19 19 19 18 17 17 18 18 17 18 18 18 18 19 19 19 19 19 19 19 18 18 18 18 18 18 18 19 19 19 19 19 19 18 17 18 18 17 16 15 16 15 16 16 16 15 14 13 13 13 13 11 10 8 5 6 9 16 14 15 16 16 15 15 16 15 15 16 17
13 11 10 10 11 14 17 17 17 19 18 18 18 19 20 19 19 19 19 18 18 17 16 17 18 18 17 18 18 18 18 19 19 19 19 19 18 18 17 17 18 18 18 18 18 18 19 19 18 17 17 17 17 16 15 15 14 14 13 13 14 12 13 12 12 12 11 11 10 6 5 6 5 13 16 16 15 14 14 15 15 15 15 15 17
12 11 10 10 9 11 16 17 18 19 19 19 19 19 19 20 19 19 19 18 18 17 16 16 17 17 17 17 17 16 16 18 19 18 18 19 16 17 17 17 17 17 18 18 18 18 18 18 18 17 17 16 16 15 14 14 13 11 9 8 11 10 12 12 11 10 10 10 8 5 6 5 5 4 16 14 13 13 14 14 14 14 14 15 15
13 10 10 10 8 10 14 17 19 19 18 19 19 19 19 19 19 18 17 17 17 17 17 16 16 17 16 16 15 16 18 18 18 18 18 18 16 16 17 16 17 17 17 17 18 18 18 17 17 17 16 16 15 14 13 13 12 10 8 7 8 10 12 12 11 10 10 6 4 5 5 6 4 3 11 13 14 13 12 13 13 12 13 13 14
10 9 9 9 9 12 15 17 19 19 19 19 19 19 19 19 18 17 17 17 17 16 15 15 15 16 16 17 16 16 16 17 17 17 17 15 15 15 16 17 17 17 17 16 17 18 17 17 16 16 16 15 14 13 12 10 9 7 6 5 6 10 12 13 11 10 9 5 5 5 5 6 7 4 9 11 10 11 11 13 13 13 14 14 13
10 10 9 9 10 18 16 16 18 20 19 18 18 20 19 19 18 16 17 17 16 16 15 15 15 15 15 15 16 14 14 16 16 14 14 15 15 15 15 16 16 16 16 16 16 16 16 16 16 16 15 14 13 12 10 9 8 7 6 6 7 11 13 13 11 9 5 4 5 5 6 6 5 3 10 11 11 12 15 12 12 13 14 14 13
10 9 9 8 10 16 16 16 17 19 18 18 18 18 19 18 18 17 17 17 16 15 15 15 14 15 15 15 14 14 16 16 15 14 13 12 12 14 16 15 15 16 16 15 16 17 16 16 15 15 15 13 12 10 9 9 9 8 7 8 10 14 15 13 12 7 4 5 5 6 6 6 5 5 10 12 11 10 11 12 10 11 11 13 14
11 9 8 8 11 15 16 16 17 18 18 18 17 18 18 18 17 16 16 16 16 15 15 15 15 14 14 14 14 14 15 16 15 15 15 16 17 17 16 15 15 15 15 15 15 15 16 15 15 14 13 12 12 10 9 10 9 10 12 13 15 16 15 14 9 5 5 6 6 5 6 9 5 4 12 12 12 12 13 14 13 12 13 13 13
11 9 8 8 14 15 16 17 18 17 17 17 17 17 17 17 16 16 15 15 15 15 14 14 14 14 14 14 14 14 15 15 14 14 15 16 16 16 16 14 14 15 15 15 15 15 15 14 13 13 13 13 12 11 10 11 11 11 14 15 15 15 14 13 7 5 6 6 6 5 6 6 5 8 13 13 13 12 12 11 12 12 12 12 12
11 10 9 8 9 13 15 16 17 17 17 18 17 17 16 16 16 15 15 13 14 15 14 14 13 12 13 13 14 14 14 14 14 14 15 14 14 15 14 13 14 14 14 14 13 14 14 14 14 13 13 13 12 11 10 11 11 12 14 15 15 15 14 12 6 6 6 6 5 5 5 5 5 11 12 12 13 12 11 11 11 11 11 10 11
11 11 10 10 8 15 14 15 16 16 16 16 16 14 15 15 15 15 13 13 13 13 12 13 13 13 13 13 13 13 13 13 13 14 14 14 14 14 13 13 13 13 13 13 13 13 13 13 13 13 14 13 12 11 11 11 11 11 14 14 14 15 14 10 7 6 6 6 5 6 6 4 4 10 10 11 11 12 11 11 11 11 10 9 9
13 11 9 9 10 10 17 14 15 16 15 14 14 14 14 14 14 14 13 14 14 13 13 14 14 14 14 14 14 14 13 13 13 14 13 12 13 14 14 13 11 11 11 11 11 12 12 13 13 13 13 13 12 10 10 11 11 11 13 13 14 14 13 6 5 5 5 5 5 6 5 4 6 8 12 10 10 11 11 11 10 10 11 11 10
8 11 9 8 9 10 10 15 16 15 14 14 14 15 15 15 15 15 14 14 13 13 13 13 13 13 13 13 12 12 14 14 13 13 13 13 13 12 12 12 11 11 11 11 11 11 11 12 13 13 13 12 11 10 9 10 11 10 11 12 13 13 13 7 6 5 5 5 5 5 5 4 10 11 9 11 11 11 10 12 11 10 10 10 10
10 8 9 8 9 8 8 9 12 17 15 14 15 16 15 15 15 15 14 14 14 14 14 13 13 13 13 12 11 12 12 13 14 14 13 13 12 11 10 11 12 11 11 11 10 11 11 12 12 12 11 11 10 9 8 9 9 8 10 12 13 13 13 9 6 5 5 5 4 4 5 4 9 10 11 11 11 10 11 10 11 11 10 10 10
9 9 8 8 8 7 7 8 10 9 9 13 16 16 15 15 14 15 14 14 13 13 13 14 13 13 14 13 12 13 13 13 13 13 13 12 12 12 12 12 11 11 10 11 10 10 10 11 12 11 10 9 9 8 7 7 7 7 10 12 13 13 13 10 6 5 6 6 5 4 4 6 9 10 11 11 11 10 10 9 10 10 8 8 9
8 8 7 7 8 7 7 6 7 7 8 7 8 12 16 15 15 15 13 13 13 14 14 14 14 13 13 14 14 14 13 13 12 12 13 12 12 12 13 12 12 11 11 10 10 9 9 10 10 10 9 7 7 7 6 6 6 7 10 14 13 12 13 7 5 5 5 5 5 4 4 7 9 11 11 11 11 11 10 10 10 10 8 9 9
6 7 7 6 7 7 6 7 7 7 7 7 8 8 14 17 15 15 14 14 14 14 15 15 15 15 15 14 14 11 11 10 14 11 13 12 11 9 11 11 11 11 11 9 8 8 9 10 9 8 7 7 8 7 6 5 6 7 9 14 13 13 6 5 6 5 5 4 4 5 6 10 10 11 11 11 11 11 11 10 11 10 8 9 9
5 6 6 6 7 8 8 7 8 9 9 8 7 7 10 15 13 15 14 14 13 14 13 15 14 13 11 11 10 6 5 6 7 6 11 7 9 11 11 11 11 10 9 8 7 8 9 9 8 7 8 8 7 8 7 5 6 8 10 14 13 6 5 5 5 4 4 4 4 4 10 11 10 9 9 10 10 11 11 10 11 10 9 10 9
7 6 6 6 7 6 8 8 8 9 9 7 6 6 7 10 7 7 6 9 11 12 9 7 8 6 11 8 6 5 5 5 6 7 6 7 8 12 11 11 11 10 9 9 8 7 7 7 8 9 8 7 7 5 5 5 6 8 9 10 7 6 5 5 5 4 4 3 4 4 11 11 10 10 10 10 9 9 9 9 10 10 11 10 9
9 7 6 6 5 5 7 8 8 9 9 7 6 6 6 6 6 6 6 8 7 7 5 6 5 6 5 5 5 5 4 4 5 6 6 10 9 12 12 11 11 11 10 9 7 6 6 6 8 8 7 7 5 5 4 4 3 7 9 7 5 5 5 5 5 4 4 3 3 7 9 9 10 9 9 9 9 9 9 9 9 9 10 11 10
9 7 8 6 5 5 7 7 9 10 8 7 6 6 6 6 6 5 5 5 5 6 6 6 6 5 5 5 5 5 4 4 8 11 8 5 7 11 12 11 12 11 10 6 7 6 7 7 7 7 5 4 4 4 4 4 4 4 4 5 5 5 5 5 5 4 4 4 3 8 9 9 9 9 9 7 7 7 8 8 8 8 9 10 10
9 8 7 7 5 6 8 8 9 9 9 7 7 6 6 6 6 5 5 5 5 5 5 5 5 6 5 4 5 5 5 5 5 5 4 5 5 5 5 5 5 5 6 4 3 4 4 4 4 4 4 4 5 4 4 4 3 4 4 5 5 5 5 5 4 4 4 3 2 7 8 7 8 9 9 8 8 7 8 8 8 9 9 9 10
8 7 9 8 6 8 8 7 8 8 8 7 7 8 8 6 6 6 6 5 6 6 5 5 5 5 5 5 6 6 5 5 5 5 5 5 5 5 5 4 5 4 3 3 3 3 3 3 3 4 3 4 4 4 4 4 4 4 4 5 5 5 5 5 4 4 4 3 2 8 6 6 6 8 8 9 8 8 8 8 8 8 8 8 8
8 7 7 8 7 8 8 8 8 8 8 7 7 6 6 5 6 6 6 6 6 6 5 5 5 5 5 5 6 5 5 5 5 5 5 4 4 4 4 4 4 4 3 4 3 3 2 2 3 3 3 4 3 3 4 4 4 5 4 5 5 5 5 5 4 4 4 4 3 10 6 6 4 7 8 8 8 7 8 8 8 7 7 7 8
7 8 7 8 8 7 8 9 7 7 7 7 6 6 6 7 7 8 6 7 6 7 6 5 5 5 4 4 6 6 6 5 5 5 4 4 4 4 3 4 3 3 3 3 3 2 2 2 3 4 4 3 3 3 3 4 3 4 5 5 5 4 4 4 5 4 4 4 3 7 6 4 1 8 7 7 8 7 7 8 8 8 7 7 8
7 8 7 7 7 8 8 8 7 7 6 7 6 6 6 6 6 7 6 8 5 7 6 6 5 4 4 5 6 6 5 5 5 4 4 4 4 4 3 3 4 3 3 3 3 2 1 1 2 3 3 3 3 4 3 4 4 3 4 5 4 4 4 4 5 4 4 4 4 6 7 5 3 8 7 8 8 8 7 8 8 7 7 8 8
5 7 8 7 6 7 9 8 7 6 6 6 6 7 7 6 6 6 6 7 6 5 6 5 4 4 4 4 4 5 5 5 5 3 5 4 4 4 3 3 4 2 3 3 1 2 2 1 1 2 2 2 3 3 3 4 4 3 3 4 4 4 4 5 5 5 4 4 4 4 7 4 5 6 8 8 8 8 8 8 8 8 8 8 7
7 8 8 7 7 8 8 7 7 7 6 6 7 8 6 6 6 5 6 7 7 5 5 4 4 4 4 5 4 5 5 5 5 4 4 4 3 3 3 3 3 2 2 2 1 2 2 2 1 1 2 2 2 2 3 4 4 4 3 3 3 4 3 3 4 4 4 4 4 4 3 4 6 3 2 8 8 7 7 7 7 8 9 8 7
9 8 8 8 8 8 8 8 8 8 7 8 8 8 7 7 6 5 6 6 6 5 5 5 4 4 4 5 4 4 5 5 5 5 5 4 3 3 2 2 2 2 3 2 3 2 2 2 2 2 2 2 2 3 3 4 5 4 3 3 3 3 3 4 4 4 4 4 4 3 3 2 5 5 4 7 8 7 6 6 7 7 7 7 7
6 9 9 10 10 9 7 8 8 9 9 10 9 8 6 7 6 6 6 6 6 5 5 4 4 4 4 4 5 5 4 5 4 5 5 4 3 3 3 2 2 2 2 3 4 2 2 2 3 2 2 2 3 3 4 4 5 4 4 5 4 4 4 4 4 4 4 3 3 3 3 2 3 4 5 6 8 6 6 6 6 6 6 6 6
8 8 9 11 8 5 5 6 8 8 10 8 7 7 7 6 5 5 6 6 5 5 4 4 4 4 4 4 4 5 5 4 5 4 4 4 3 3 3 2 2 2 2 3 3 3 3 3 2 2 3 2 2 2 3 5 4 4 5 5 5 4 4 5 4 4 3 3 2 3 3 3 3 3 4 6 5 5 2 2 5 5 6 5 5
9 9 12 11 9 7 7 6 10 8 10 9 10 9 7 6 5 5 5 5 5 5 5 4 4 4 4 3 4 4 5 5 4 5 4 4 4 3 3 2 3 3 3 2 3 2 3 3 2 3 2 2 3 4 4 4 4 6 5 5 5 5 6 6 5 4 4 3 3 3 4 2 3 4 4 4 3 3 3 3 3 2 3 5 5
12 10 9 9 8 8 8 8 9 8 7 8 7 6 6 6 5 6 6 6 6 5 5 4 4 4 4 4 3 3 4 4 4 4 4 4 4 4 3 2 3 3 2 2 2 3 3 3 2 2 3 2 3 4 4 5 6 6 6 6 6 6 6 5 5 5 4 3 3 5 5 6 4 3 4 4 3 3 4 2 4 5 8 7 5
10 9 10 9 8 8 9 8 9 8 8 7 6 6 6 6 6 6 6 6 6 5 4 4 4 4 4 4 3 3 3 4 4 4 4 4 4 4 2 4 3 4 3 2 2 2 3 3 2 2 2 3 3 4 5 6 6 7 7 7 6 5 5 4 4 4 4 4 4 5 5 2 1 4 4 4 4 4 5 8 7 8 7 2 4
9 8 8 8 7 7 7 7 6 6 6 6 7 6 6 6 5 6 6 6 5 4 5 4 4 4 4 4 4 3 3 3 4 4 4 3 3 3 4 5 4 4 3 2 2 3 3 3 3 2 3 3 4 5 6 7 6 7 7 7 6 5 5 4 4 4 5 5 5 5 3 2 3 4 4 4 5 4 4 7 10 9 8 9 9
6 7 7 6 6 5 5 7 6 6 6 6 7 7 7 6 5 5 6 6 5 4 5 4 4 4 4 4 4 4 4 4 4 4 5 4 3 4 4 5 5 4 4 3 3 3 4 3 4 3 4 4 4 4 6 8 9 8 8 7 6 6 4 4 4 5 4 4 5 5 3 3 5 5 5 4 4 4 4 4 4 4 5 10 11
6 7 8 7 7 7 6 5 6 6 6 6 6 6 6 6 7 5 5 5 5 4 4 4 4 4 4 4 4 4 4 5 4 4 4 4 4 4 5 4 5 4 4 4 3 3 5 5 4 5 5 6 5 5 7 8 8 8 8 8 7 6 6 5 6 6 5 5 5 4 5 5 5 5 5 4 4 5 5 5 4 4 5 9 12
7 8 9 9 7 8 8 6 5 6 6 6 6 7 7 6 5 5 5 5 5 4 4 4 4 4 5 5 4 4 4 4 4 5 5 4 4 3 3 4 4 4 5 5 4 4 4 5 4 3 4 4 3 4 5 6 9 7 7 8 7 6 6 7 8 7 6 5 3 4 4 5 5 5 4 5 5 5 5 4 4 4 4 4 7
8 9 9 8 8 9 10 8 6 6 6 6 6 6 5 6 5 5 5 5 6 5 4 4 4 4 5 5 4 4 4 4 4 4 4 5 4 4 4 4 4 3 3 3 3 4 5 5 4 3 3 3 3 4 4 4 4 5 7 5 6 5 6 7 8 7 6 6 4 3 4 4 5 4 4 5 4 4 4 4 4 4 4 5 6
8 7 6 7 8 8 8 8 7 7 6 7 7 6 4 5 5 5 6 4 1 2 4 4 4 5 4 4 4 3 4 4 4 4 5 4 5 5 4 4 4 4 3 3 4 4 5 6 5 5 4 2 2 2 3 1 4 4 4 5 1 2 3 4 5 7 6 6 5 5 6 4 3 5 4 3 4 3 5 4 5 5 5 6 6
6 6 6 7 7 6 7 8 8 6 6 6 6 6 5 4 5 6 5 4 4 3 5 5 5 5 4 4 3 4 4 4 4 4 4 5 5 5 4 4 4 4 5 4 4 4 4 5 5 5 6 4 2 4 2 1 3 8 3 1 2 2 4 2 4 4 5 7 6 6 5 5 5 6 5 6 6 6 5 5 6 5 5 5 5
6 7 6 7 7 8 6 8 7 7 6 6 7 7 7 7 6 6 6 6 5 4 5 5 4 3 3 3 4 3 4 5 4 4 4 5 4 5 5 4 4 4 4 4 4 5 5 5 6 6 6 5 5 3 3 2 4 1 6 5 3 1 1 3 3 4 4 5 7 6 7 7 7 6 5 5 6 6 5 5 6 6 5 6 6
7 6 6 6 8 7 7 7 6 6 7 7 8 8 7 8 8 7 6 5 5 5 5 5 3 4 4 1 2 3 4 4 4 4 4 4 4 4 4 4 4 3 3 4 4 3 4 5 6 6 5 3 4 4 3 1 2 2 2 1 3 3 6 5 1 3 4 6 6 7 7 7 6 5 5 6 6 5 4 5 5 5 5 5 5
5 5 5 6 8 6 7 7 7 6 6 7 7 7 7 7 7 7 7 7 7 2 2 3 5 2 3 3 3 2 2 4 4 3 4 3 4 4 4 4 4 4 2 3 4 5 5 5 4 5 5 5 4 4 5 4 3 2 1 0 2 2 7 7 3 5 5 2 4 5 7 7 7 7 7 6 6 5 4 4 5 5 5 4 4
6 6 5 5 7 7 7 7 6 7 6 7 7 7 8 6 6 6 6 7 7 6 5 4 3 4 5 3 3 2 2 4 5 4 5 5 5 5 4 4 5 5 4 5 5 4 3 2 4 4 4 5 6 6 5 5 6 2 2 3 5 5 3 3 6 5 6 7 6 6 6 6 7 7 7 6 6 5 5 4 4 4 4 4 3
7 7 6 5 4 6 6 6 7 6 5 5 7 6 7 7 7 7 6 3 5 6 5 4 5 4 6 3 4 3 3 3 4 5 5 5 4 5 5 5 4 4 4 4 4 5 6 5 4 4 6 5 5 4 5 5 5 4 4 4 5 5 5 4 4 4 5 7 5 5 6 5 8 7 6 6 5 5 5 4 4 4 4 4 4
6 7 6 5 5 5 6 7 6 6 5 4 5 5 7 7 7 7 8 6 6 5 5 6 5 5 6 4 3 4 3 4 4 3 3 4 4 4 5 4 4 3 3 4 4 4 4 4 5 5 5 6 4 5 6 5 3 5 5 6 5 4 6 5 4 6 6 4 7 7 6 6 5 5 6 5 6 5 5 4 4 4 4 3 3
6 7 6 6 6 6 6 7 6 6 5 5 5 6 6 7 8 8 9 9 7 8 7 5 5 5 7 4 4 4 3 4 3 3 3 3 4 4 5 5 4 4 4 4 4 4 3 3 2 3 4 5 5 5 4 4 4 5 5 6 6 7 6 5 7 5 5 6 8 7 5 6 7 5 5 4 4 4 4 4 4 3 3 3 3
Wind_Direction
157 142 142 139 135 135 133 129 123 118 116 116 117 117 117 114 110 108 105 103 109 110 110 110 112 115 118 119 120 118 116 121 122 120 116 113 114 116 118 115 115 115 113 112 110 106 104 105 104 106 105 101 98 96 96 97 93 89 86 85 81 81 82 81 80 82 87 88 87 84 88 82 78 75 85 85 82 79 76 75 71 69 70 76 78
150 142 136 137 133 134 133 130 124 119 118 118 118 119 118 116 114 112 109 108 107 109 111 114 116 118 118 120 119 119 122 122 120 116 115 116 116 116 115 117 118 118 118 116 111 107 105 106 108 105 104 104 102 103 102 96 93 91 88 85 83 80 79 76 82 88 92 101 94 81 82 90 87 87 78 79 79 78 77 77 75 70 72 72 72
131 133 134 134 134 136 133 132 124 120 119 120 120 120 119 118 118 117 115 113 112 113 113 115 116 117 118 119 121 122 122 122 120 119 118 116 115 113 116 120 119 117 115 114 111 112 112 112 109 110 107 104 105 106 102 100 99 97 96 93 88 84 80 79 81 88 94 96 85 65 58 77 98 80 83 87 81 79 78 78 79 77 76 79 74
131 131 131 134 136 134 135 132 124 121 121 120 119 119 119 119 119 119 118 117 116 115 116 116 116 117 117 120 123 126 126 126 125 125 124 120 114 113 115 116 115 114 112 110 112 111 114 114 111 108 108 109 110 110 107 106 105 103 100 95 85 85 87 84 86 91 90 77 66 57 52 35 73 89 89 89 83 80 80 80 78 77 79 76 77
129 130 132 130 132 136 135 132 126 122 122 121 120 120 120 120 119 120 119 118 118 114 112 117 118 119 122 125 131 133 134 133 132 127 121 117 117 115 115 115 113 111 111 113 114 117 118 115 113 112 110 109 109 106 107 107 106 108 110 100 74 69 89 91 90 91 82 70 57 49 47 37 26 90 89 85 80 79 78 77 75 70 70 72 71
132 132 130 128 130 136 134 131 126 124 124 123 122 121 120 120 121 121 120 119 118 116 117 120 121 123 124 125 126 125 125 122 119 118 116 115 115 116 113 112 110 115 114 114 116 119 117 113 112 110 108 107 104 104 102 103 104 100 105 92 84 75 93 99 94 91 74 59 45 33 28 40 64 82 100 86 84 81 80 78 77 75 71 68 68
132 131 129 128 130 133 135 132 128 127 127 126 125 123 122 122 122 121 121 120 121 122 121 121 123 125 124 123 119 117 118 119 116 114 114 115 118 116 117 116 115 113 112 116 120 119 115 113 112 109 105 104 104 105 103 100 98 104 103 102 93 94 101 104 101 88 69 52 45 37 49 61 45 4 77 87 84 80 78 80 80 79 76 74 72
125 127 127 128 131 136 136 133 131 131 130 129 127 126 124 123 124 124 123 125 124 122 121 121 124 127 126 126 125 121 118 117 115 117 115 117 118 118 120 119 116 116 116 119 122 119 115 113 110 108 107 105 103 101 98 96 95 95 102 105 107 107 109 110 106 91 68 48 45 48 49 51 45 32 93 78 88 94 85 82 77 77 76 74 73
124 121 123 127 135 138 136 134 134 134 133 130 128 126 126 127 127 126 125 125 124 123 123 122 124 124 125 122 119 114 115 120 115 108 114 120 122 123 121 117 112 111 115 121 121 118 115 113 112 110 106 103 100 95 92 89 86 91 104 122 126 122 119 113 104 84 68 56 55 58 63 60 66 59 88 87 88 77 72 70 72 75 77 77 75
124 123 128 131 137 138 136 137 136 135 134 132 129 128 128 129 128 127 124 126 126 125 124 124 123 120 122 118 111 110 112 108 99 100 101 111 114 108 105 108 108 108 112 118 121 119 115 112 109 105 101 96 91 86 83 78 84 96 103 113 123 128 120 111 99 80 66 56 53 54 61 60 48 55 82 81 86 92 88 95 89 82 79 78 76
122 124 126 128 137 137 139 138 135 135 134 133 131 129 130 131 129 127 125 126 126 125 125 125 122 120 116 111 108 107 103 99 98 97 103 107 109 110 111 112 112 113 113 117 118 115 113 107 103 101 95 91 86 81 74 75 88 99 103 109 117 118 113 106 92 74 60 54 49 36 55 64 88 104 88 87 93 102 97 82 79 76 76 77 77
124 122 124 130 141 139 140 139 137 136 135 134 134 132 132 132 129 128 128 127 128 126 125 125 122 119 115 112 109 106 102 101 99 98 104 111 113 114 115 117 116 113 114 118 116 112 104 101 100 94 91 87 83 77 69 76 89 99 111 110 112 111 108 104 95 89 78 67 59 47 37 43 41 91 94 98 96 93 87 85 81 76 72 71 72
129 129 131 135 137 143 140 138 138 137 136 137 136 135 132 131 131 131 129 129 129 127 127 124 119 116 113 110 108 106 105 105 106 106 106 109 117 119 121 121 116 117 116 116 113 108 103 97 92 88 85 83 82 77 69 71 86 99 114 112 112 113 112 106 97 94 85 73 62 57 56 49 60 83 85 89 94 93 88 85 83 80 77 80 75
134 139 142 139 141 145 139 138 139 139 138 138 136 133 132 131 130 128 128 126 127 127 125 123 120 115 113 111 109 107 106 108 114 116 113 113 114 117 117 117 118 117 114 112 108 101 96 93 89 84 80 78 78 76 71 69 81 98 117 116 117 117 115 107 104 97 93 91 91 85 71 71 78 87 94 96 88 83 84 85 84 78 77 80 87
139 140 139 139 143 142 141 139 139 138 137 136 132 130 128 125 123 124 124 127 127 125 128 124 121 121 119 115 114 113 114 114 116 121 118 115 117 118 120 120 120 116 112 109 104 99 93 88 85 82 81 80 79 75 72 70 76 97 119 122 122 121 117 110 108 108 105 99 86 77 66 74 105 104 98 91 87 85 83 88 90 85 81 84 87
136 136 135 135 134 141 140 142 141 138 135 132 131 129 127 124 125 126 127 126 126 128 127 127 125 123 123 121 121 122 120 121 118 116 118 117 119 119 122 125 125 119 113 107 100 95 88 83 80 79 80 81 79 76 74 74 86 98 120 124 126 124 123 118 113 108 103 101 96 98 101 97 85 91 100 96 93 89 91 80 81 86 89 89 91
137 131 132 134 135 134 139 139 141 137 133 130 130 126 125 127 129 127 126 128 127 126 125 125 123 118 118 120 123 122 122 122 119 119 118 119 116 116 121 126 126 123 112 105 100 93 84 81 78 77 76 80 80 76 74 77 78 92 126 130 129 129 128 124 117 116 119 115 113 106 104 121 122 122 113 107 106 100 88 93 89 83 84 80 77
129 136 136 134 130 127 128 135 137 132 132 135 131 128 129 130 128 129 130 128 127 126 127 125 122 122 125 126 125 121 120 121 121 120 118 116 113 112 113 118 122 121 111 107 98 86 82 78 75 74 73 73 78 78 77 80 86 91 129 137 135 136 135 128 124 127 130 126 120 123 125 122 111 111 109 106 103 104 105 100 91 90 92 93 93
125 128 124 122 120 125 127 127 126 121 120 121 131 133 133 133 132 132 130 128 127 130 130 126 127 129 126 128 124 121 119 116 115 117 119 114 111 111 114 116 117 111 105 103 95 89 83 76 72 69 68 69 72 72 75 83 95 97 130 142 140 139 137 127 127 134 125 123 131 133 149 137 134 130 126 126 124 113 105 96 99 100 95 86 85
116 122 125 121 128 124 118 120 119 120 120 122 132 137 138 135 134 132 131 133 134 134 134 133 133 134 134 127 123 119 115 115 116 117 114 110 105 102 103 100 99 97 100 93 86 85 79 73 70 67 65 64 66 71 75 87 104 104 119 145 144 139 126 130 124 118 123 134 135 138 136 125 131 131 130 131 125 120 119 114 102 103 103 93 91
118 125 131 130 127 129 129 126 123 123 124 125 127 136 141 137 135 134 135 137 139 139 137 138 135 132 124 115 104 99 97 100 107 111 110 108 111 110 106 106 102 98 97 96 85 76 76 78 77 67 63 68 70 69 73 86 117 114 121 148 140 120 131 126 120 119 127 131 132 148 146 139 139 131 124 122 118 121 116 112 115 114 99 88 87
138 136 130 131 134 130 123 123 123 126 128 128 129 135 144 132 126 127 132 138 142 140 135 133 130 118 116 109 107 103 100 107 113 113 111 115 113 111 107 105 102 99 96 90 83 79 79 84 79 74 76 78 77 67 52 64 104 116 126 127 113 135 129 123 119 125 120 119 130 163 147 143 138 135 132 128 123 119 119 115 109 107 107 100 90
147 142 136 135 137 123 118 121 122 127 128 127 129 131 126 112 114 121 131 134 132 126 99 108 86 104 108 111 108 106 109 108 112 123 121 121 113 111 108 106 104 102 101 95 91 87 83 74 76 82 78 74 68 64 67 60 34 93 122 126 130 130 121 116 114 115 120 136 124 163 147 144 139 132 124 122 122 118 114 110 107 109 105 104 103
150 146 145 142 139 124 123 124 128 135 137 134 132 128 123 118 122 115 112 105 104 100 98 101 103 108 109 107 109 106 98 102 127 122 109 94 109 109 108 104 99 95 80 68 71 85 70 65 71 72 70 67 71 65 77 61 68 78 106 131 125 119 119 122 125 124 137 154 193 168 151 143 138 132 123 121 120 118 114 109 107 106 102 102 102
149 140 138 140 130 131 136 136 138 140 142 136 135 131 125 123 116 112 107 103 99 97 102 104 112 112 109 106 106 105 97 88 71 76 82 89 79 74 69 74 74 70 76 74 61 52 49 45 37 55 54 68 74 69 81 82 76 95 113 129 125 118 121 128 126 127 141 136 180 161 149 144 139 129 127 126 125 118 110 111 112 107 101 100 98
140 136 137 136 136 139 145 144 141 146 144 138 134 135 129 122 111 117 109 108 111 109 108 113 114 115 115 114 106 101 97 92 87 89 86 92 86 89 85 85 76 79 87 92 71 62 52 32 44 60 53 60 72 75 69 100 114 108 116 127 130 131 133 134 123 125 133 127 193 153 147 154 145 132 133 131 125 122 118 113 111 104 99 103 105
152 138 136 142 139 142 148 150 147 144 140 130 131 127 120 113 114 121 120 117 119 117 119 115 121 124 120 122 116 107 101 102 101 96 98 93 91 89 95 82 87 90 102 101 74 60 58 44 52 65 61 71 68 62 83 88 115 123 117 126 133 135 138 126 125 133 139 138 177 151 150 171 173 130 124 129 119 120 122 120 114 110 110 110 102
149 140 140 141 148 148 152 153 147 144 138 130 121 120 113 119 133 134 122 131 124 125 124 127 127 122 119 112 112 111 117 111 109 109 109 102 104 96 100 100 99 98 104 105 101 64 62 55 52 46 56 51 76 54 63 76 80 114 126 125 127 126 122 125 132 139 135 144 156 154 153 163 171 111 124 120 114 116 121 121 119 118 115 107 100
151 144 140 143 148 155 155 153 149 140 135 127 121 118 124 133 130 127 133 137 122 131 132 133 123 118 105 110 116 110 104 111 113 115 109 104 111 113 101 107 106 102 92 80 108 116 77 50 59 49 51 49 43 47 63 69 73 68 112 130 128 126 127 129 136 133 120 119 129 149 153 162 85 135 124 120 120 118 125 125 125 123 117 107 105
160 138 148 153 144 155 161 155 148 133 125 126 125 134 143 142 133 135 137 130 133 129 131 126 130 117 103 96 98 115 121 124 119 111 118 121 118 108 105 117 121 109 99 108 124 123 125 92 62 62 63 47 45 28 52 68 66 65 64 108 127 132 135 148 146 127 115 110 109 136 151 142 106 149 139 130 127 126 129 135 135 127 122 122 122
161 146 157 163 158 161 163 153 147 142 133 135 142 142 147 135 134 135 120 132 136 134 127 125 115 101 103 101 100 112 119 122 126 130 123 128 127 116 111 109 119 115 112 115 126 122 114 110 89 82 58 52 46 31 44 66 60 56 61 105 119 120 124 110 93 88 97 95 86 77 117 130 104 94 101 140 134 130 136 129 133 136 131 134 137
167 166 167 163 168 173 154 150 155 155 145 145 149 147 145 138 136 126 127 132 135 127 125 126 113 101 107 113 118 118 124 125 132 136 135 134 127 118 105 123 134 104 126 134 123 110 114 100 93 86 74 65 61 48 47 72 68 57 66 76 63 74 67 68 84 87 80 81 82 68 69 67 111 114 107 125 125 135 144 135 132 135 138 138 144
168 174 174 174 179 174 153 156 156 156 153 158 157 153 136 140 144 135 134 132 134 127 122 125 110 111 114 120 128 127 126 129 133 141 144 145 143 144 141 140 131 128 130 134 128 117 98 90 78 82 77 72 66 45 51 62 59 49 58 62 68 74 72 72 79 87 92 93 77 80 69 70 79 90 97 125 135 148 153 148 145 142 141 144 148
173 183 178 187 175 152 143 154 160 158 158 154 147 140 143 142 139 128 129 118 120 126 124 114 126 117 114 120 125 129 136 141 142 137 132 139 142 157 158 143 139 129 126 131 126 132 125 120 114 103 81 70 63 33 49 57 50 54 56 63 70 74 79 80 82 89 104 108 104 80 77 76 87 90 83 112 141 143 151 144 147 166 161 156 160
181 183 190 187 166 153 154 159 163 159 160 152 152 150 143 140 133 125 120 118 117 121 130 126 122 126 124 125 130 138 142 145 150 146 142 133 135 133 150 147 133 136 121 128 134 124 124 124 123 111 80 65 65 52 50 59 63 61 61 71 79 78 77 89 100 108 121 132 82 76 64 69 103 83 84 78 94 114 95 71 78 164 119 158 171
185 181 180 173 167 156 161 157 162 158 151 153 150 143 138 127 126 126 119 123 126 126 136 140 131 126 129 130 141 141 138 139 138 138 136 139 141 155 151 142 147 127 117 131 142 133 124 105 60 118 109 81 74 61 56 67 67 71 70 75 82 87 93 106 121 129 134 116 80 63 22 39 4 56 82 75 82 128 126 155 72 64 120 170 189
177 176 176 169 164 155 161 158 158 153 147 146 136 127 121 126 127 119 123 123 130 130 133 132 130 129 132 141 147 142 130 133 137 137 134 142 139 137 150 151 146 136 138 132 126 129 131 115 76 75 83 114 94 94 74 74 74 71 72 78 80 90 100 108 122 132 119 96 83 79 85 54 50 64 58 70 72 88 79 70 65 67 64 116 195
179 176 171 166 157 151 150 151 144 141 139 137 134 126 120 117 115 119 122 119 121 127 135 136 136 139 139 145 150 146 151 146 140 138 130 141 143 143 150 155 142 138 126 124 117 115 112 118 108 62 78 98 108 106 90 80 77 73 68 65 68 73 86 104 124 120 108 104 90 87 116 120 103 60 64 54 69 67 66 67 64 56 55 61 61
174 175 166 156 131 126 120 141 144 134 129 126 126 118 116 106 108 119 115 113 113 117 132 131 141 139 142 146 152 158 160 157 148 145 136 144 139 150 156 152 142 133 127 129 131 118 110 98 118 91 66 82 112 101 103 91 82 75 68 63 63 65 72 82 77 74 75 101 116 108 89 61 67 66 64 65 67 73 73 72 68 67 52 58 63
170 174 170 158 135 125 134 128 137 137 127 121 122 122 123 129 125 116 108 109 115 125 127 136 141 143 152 156 160 161 163 160 154 143 143 142 152 162 157 155 141 141 142 145 154 145 129 119 116 114 97 80 72 97 104 96 80 73 65 58 52 57 64 60 60 55 54 54 61 75 74 70 72 72 71 74 72 75 78 76 72 70 65 64 62
171 181 175 167 140 137 146 152 139 138 136 135 136 138 138 133 123 128 117 123 130 129 139 148 147 154 155 157 162 167 155 150 144 138 144 147 130 132 145 143 127 137 153 169 164 143 139 125 117 94 109 102 81 101 106 107 102 80 69 66 56 46 54 57 63 68 65 63 57 65 63 72 73 64 66 69 71 74 71 70 76 66 60 64 61
181 187 181 161 140 139 158 157 145 146 144 144 142 143 151 153 145 142 128 134 140 143 148 162 150 139 140 148 154 150 142 148 143 137 140 143 141 150 162 152 131 147 152 155 145 140 132 132 129 95 60 115 121 150 162 110 60 117 117 97 72 47 46 46 52 66 75 74 74 81 62 64 59 50 38 60 52 70 72 58 63 60 54 56 58
175 190 165 145 144 141 152 155 156 148 147 149 150 145 138 138 138 138 136 118 67 142 135 133 121 110 113 127 132 132 139 143 146 143 144 155 156 155 166 154 151 153 143 139 133 138 155 152 153 139 127 80 107 176 184 21 130 117 91 101 74 91 11 39 47 49 68 62 55 79 94 60 63 105 102 78 62 72 75 69 64 61 59 63 63
166 174 155 151 148 143 156 153 156 148 147 153 142 133 128 114 97 114 98 115 144 111 85 91 90 95 92 108 123 142 148 153 156 150 148 155 158 162 154 157 156 164 157 152 158 162 164 151 134 142 140 136 147 191 203 180 135 141 112 74 171 117 107 67 55 32 55 81 84 78 82 92 75 81 92 91 86 79 69 68 69 62 60 64 62
169 173 158 154 157 160 160 153 150 151 150 144 138 133 118 97 97 89 97 89 77 75 84 53 62 94 89 115 147 151 154 154 156 150 147 152 151 145 155 148 146 161 150 148 167 184 188 170 155 149 171 154 167 175 176 173 195 119 145 113 70 56 225 126 101 47 37 67 58 73 81 84 75 75 98 98 84 74 72 66 63 55 47 51 55
167 172 162 155 164 159 143 140 136 142 150 146 146 141 138 133 134 136 129 104 105 114 131 144 128 137 170 190 116 153 155 144 144 145 143 141 144 143 136 138 154 162 172 169 164 148 176 166 179 163 157 196 149 143 173 41 161 127 180 167 166 170 158 152 138 86 46 59 78 76 84 86 87 83 77 88 87 80 70 75 65 59 50 48 51
159 152 161 162 166 137 137 141 144 146 150 148 148 137 134 144 153 150 143 144 140 163 110 125 148 143 114 128 129 82 99 127 125 136 141 138 133 140 141 150 163 171 170 146 169 192 190 193 154 157 167 142 128 157 176 167 91 52 344 291 126 107 150 140 126 123 114 55 63 78 78 81 85 86 83 75 75 72 52 57 58 61 55 50 53
147 149 160 160 164 145 138 141 142 145 153 148 145 145 141 146 134 133 133 135 150 151 147 127 108 127 115 112 105 72 69 105 127 132 144 142 141 139 144 152 166 176 172 189 189 187 168 182 178 167 143 161 163 162 176 176 167 160 19 58 88 100 94 105 132 146 126 129 102 81 81 83 77 70 63 54 50 62 64 49 61 65 69 59 57
151 160 158 151 136 136 130 133 138 139 146 146 138 139 137 145 140 134 127 129 127 126 118 114 122 119 107 88 93 88 69 62 84 122 144 145 146 145 142 138 145 163 163 161 169 168 172 170 171 162 170 157 173 161 154 178 144 159 118 52 79 84 74 64 97 81 127 129 115 113 113 81 77 63 55 50 44 43 44 48 52 53 55 55 54
142 144 140 134 134 142 139 135 136 134 137 131 127 130 137 138 134 138 132 121 113 106 117 120 121 125 116 112 112 97 84 67 54 65 109 130 132 129 121 126 131 131 122 140 137 145 170 180 184 184 173 163 149 164 176 168 166 155 160 151 124 112 94 74 47 107 62 43 132 132 119 117 87 47 42 41 42 42 46 42 47 41 44 44 45
133 143 145 148 144 149 154 139 136 132 134 137 132 138 142 144 141 143 140 136 138 131 121 115 119 117 119 117 115 104 73 79 75 66 83 118 118 118 124 128 124 121 124 132 157 164 173 162 148 158 176 174 145 137 112 145 153 149 147 158 157 153 159 157 163 156 137 130 122 119 118 87 95 76 27 39 50 50 53 49 46 46 42 47 44